EUTELSAT 172B (42741 NORAD) Tracking and Keplerian Element Data

This shows tracking and keplerian element data for the satellite.

Feedback or suggestion? Click here.




ElementValue
Catalog42741
NameEUTELSAT 172B
Epoch Orbit2630
Epoch Day160.12827128
Epoch Year2024
RAAN171.9884
Inclination0.0312
Eccentricity2.97E-05
Argument of Perigee109.2419
Mean Anonmoly193.9454
Mean Motion1.00271451
Decay Rate-6E-08
L11 42741U 17029B 24160.12827128 -.00000006 00000+0 00000+0 0 9996
L22 42741 0.0312 171.9884 0000297 109.2419 193.9454 1.00271451 26305



Live tracking and technical data element details for EUTELSAT 172B (NORAD 42741). EUTELSAT 172B can be tracked NOW for your location showing map with azimuth and elevation plus other details from your city location.







IsCatalogInMostPopularTable: catalog: 42741, numindb: 628
Update: records affected: 1



GetName: 42741 EUTELSAT 172B

Hit Count: updated at: Fri, 14 Jun 2024 18:25:24 GMT